Terug naar catalogus

STARLINK-31520

ActiefCommunicatieVLEO
NORAD 59210·PAYLOAD·🇺🇸 United States

Gelanceerd Mar 11, 2024 vanaf Vandenberg Space Force Base

Loading…

Volgende Passages (komende 24 uur)

TLE

VersSource: CelesTrak SupGP

Epoch: Sep 15, 2026, 01:46 UTC

1 59210C 24046K   26258.07409722  .00054643  00000+0  16147-2 0  2587
2 59210  53.1586 354.7723 0001099  91.2334  58.3473 15.34358219    11

Volg STARLINK-31520 in realtime met AllMySat

Download on the App Store